﻿測定場所 (Monitoring sites),日付 (Measurement date),時間 (Measurement time),線量率 最大値 (max) μGy/h,線量率 最小値 (min) μGy/h,線量率 平均値 (average) μGy/h,
新宿 (Shinjuku),2015-10-18,23:01～24:00,0.0338,0.0294,0.0315,
新宿 (Shinjuku),2015-10-18,22:01～23:00,0.0331,0.0289,0.0312,
新宿 (Shinjuku),2015-10-18,21:01～22:00,0.0333,0.0286,0.0312,
新宿 (Shinjuku),2015-10-18,20:01～21:00,0.0327,0.0293,0.0315,
新宿 (Shinjuku),2015-10-18,19:01～20:00,0.0332,0.0284,0.0309,
新宿 (Shinjuku),2015-10-18,18:01～19:00,0.0331,0.0290,0.0311,
新宿 (Shinjuku),2015-10-18,17:01～18:00,0.0327,0.0285,0.0310,
新宿 (Shinjuku),2015-10-18,16:01～17:00,0.0328,0.0293,0.0309,
新宿 (Shinjuku),2015-10-18,15:01～16:00,0.0332,0.0296,0.0311,
新宿 (Shinjuku),2015-10-18,14:01～15:00,0.0337,0.0296,0.0314,
新宿 (Shinjuku),2015-10-18,13:01～14:00,0.0334,0.0293,0.0313,
新宿 (Shinjuku),2015-10-18,12:01～13:00,0.0332,0.0292,0.0311,
新宿 (Shinjuku),2015-10-18,11:01～12:00,0.0340,0.0295,0.0314,
新宿 (Shinjuku),2015-10-18,10:01～11:00,0.0339,0.0289,0.0314,
新宿 (Shinjuku),2015-10-18,09:01～10:00,0.0335,0.0297,0.0316,
新宿 (Shinjuku),2015-10-18,08:01～09:00,0.0334,0.0294,0.0315,
新宿 (Shinjuku),2015-10-18,07:01～08:00,0.0332,0.0295,0.0316,
新宿 (Shinjuku),2015-10-18,06:01～07:00,0.0329,0.0296,0.0311,
新宿 (Shinjuku),2015-10-18,05:01～06:00,0.0329,0.0297,0.0313,
新宿 (Shinjuku),2015-10-18,04:01～05:00,0.0330,0.0290,0.0312,
新宿 (Shinjuku),2015-10-18,03:01～04:00,0.0335,0.0287,0.0311,
新宿 (Shinjuku),2015-10-18,02:01～03:00,0.0329,0.0293,0.0311,
新宿 (Shinjuku),2015-10-18,01:01～02:00,0.0343,0.0288,0.0310,
新宿 (Shinjuku),2015-10-18,00:01～01:00,0.0331,0.0296,0.0311,
新宿 (Shinjuku),2015-10-17,23:01～24:00,0.0331,0.0288,0.0308,
新宿 (Shinjuku),2015-10-17,22:01～23:00,0.0338,0.0294,0.0313,
新宿 (Shinjuku),2015-10-17,21:01～22:00,0.0332,0.0290,0.0313,
新宿 (Shinjuku),2015-10-17,20:01～21:00,0.0329,0.0292,0.0310,
新宿 (Shinjuku),2015-10-17,19:01～20:00,0.0323,0.0290,0.0309,
新宿 (Shinjuku),2015-10-17,18:01～19:00,0.0346,0.0289,0.0312,
新宿 (Shinjuku),2015-10-17,17:01～18:00,0.0334,0.0297,0.0314,
新宿 (Shinjuku),2015-10-17,16:01～17:00,0.0338,0.0293,0.0313,
新宿 (Shinjuku),2015-10-17,15:01～16:00,0.0336,0.0297,0.0315,
新宿 (Shinjuku),2015-10-17,14:01～15:00,0.0335,0.0298,0.0315,
新宿 (Shinjuku),2015-10-17,13:01～14:00,0.0340,0.0302,0.0319,
新宿 (Shinjuku),2015-10-17,12:01～13:00,0.0340,0.0298,0.0320,
新宿 (Shinjuku),2015-10-17,11:01～12:00,0.0351,0.0300,0.0321,
新宿 (Shinjuku),2015-10-17,10:01～11:00,0.0356,0.0316,0.0335,
新宿 (Shinjuku),2015-10-17,09:01～10:00,0.0362,0.0299,0.0328,
新宿 (Shinjuku),2015-10-17,08:01～09:00,0.0329,0.0294,0.0312,
新宿 (Shinjuku),2015-10-17,07:01～08:00,0.0329,0.0294,0.0313,
新宿 (Shinjuku),2015-10-17,06:01～07:00,0.0336,0.0290,0.0313,
新宿 (Shinjuku),2015-10-17,05:01～06:00,0.0345,0.0296,0.0313,
新宿 (Shinjuku),2015-10-17,04:01～05:00,0.0349,0.0303,0.0321,
新宿 (Shinjuku),2015-10-17,03:01～04:00,0.0355,0.0312,0.0335,
新宿 (Shinjuku),2015-10-17,02:01～03:00,0.0365,0.0325,0.0343,
新宿 (Shinjuku),2015-10-17,01:01～02:00,0.0368,0.0323,0.0349,
新宿 (Shinjuku),2015-10-17,00:01～01:00,0.0356,0.0319,0.0339,
新宿 (Shinjuku),2015-10-16,23:01～24:00,0.0359,0.0318,0.0343,
新宿 (Shinjuku),2015-10-16,22:01～23:00,0.0371,0.0317,0.0340,
新宿 (Shinjuku),2015-10-16,21:01～22:00,0.0372,0.0305,0.0340,
新宿 (Shinjuku),2015-10-16,20:01～21:00,0.0335,0.0297,0.0317,
新宿 (Shinjuku),2015-10-16,19:01～20:00,0.0335,0.0299,0.0317,
新宿 (Shinjuku),2015-10-16,18:01～19:00,0.0345,0.0289,0.0314,
新宿 (Shinjuku),2015-10-16,17:01～18:00,0.0337,0.0297,0.0315,
新宿 (Shinjuku),2015-10-16,16:01～17:00,0.0338,0.0293,0.0315,
新宿 (Shinjuku),2015-10-16,15:01～16:00,0.0333,0.0298,0.0317,
新宿 (Shinjuku),2015-10-16,14:01～15:00,0.0333,0.0296,0.0316,
新宿 (Shinjuku),2015-10-16,13:01～14:00,0.0342,0.0300,0.0321,
新宿 (Shinjuku),2015-10-16,12:01～13:00,0.0350,0.0297,0.0323,
新宿 (Shinjuku),2015-10-16,11:01～12:00,0.0353,0.0316,0.0330,
新宿 (Shinjuku),2015-10-16,10:01～11:00,0.0373,0.0324,0.0346,
新宿 (Shinjuku),2015-10-16,09:01～10:00,0.0370,0.0328,0.0351,
新宿 (Shinjuku),2015-10-16,08:01～09:00,0.0365,0.0320,0.0341,
新宿 (Shinjuku),2015-10-16,07:01～08:00,0.0354,0.0310,0.0334,
新宿 (Shinjuku),2015-10-16,06:01～07:00,0.0358,0.0305,0.0329,
新宿 (Shinjuku),2015-10-16,05:01～06:00,0.0350,0.0307,0.0329,
新宿 (Shinjuku),2015-10-16,04:01～05:00,0.0354,0.0308,0.0335,
新宿 (Shinjuku),2015-10-16,03:01～04:00,0.0372,0.0331,0.0351,
新宿 (Shinjuku),2015-10-16,02:01～03:00,0.0363,0.0314,0.0338,
新宿 (Shinjuku),2015-10-16,01:01～02:00,0.0349,0.0310,0.0328,
新宿 (Shinjuku),2015-10-16,00:01～01:00,0.0343,0.0295,0.0317,
新宿 (Shinjuku),2015-10-15,23:01～24:00,0.0332,0.0295,0.0312,
新宿 (Shinjuku),2015-10-15,22:01～23:00,0.0331,0.0298,0.0314,
新宿 (Shinjuku),2015-10-15,21:01～22:00,0.0334,0.0289,0.0315,
新宿 (Shinjuku),2015-10-15,20:01～21:00,0.0334,0.0285,0.0310,
新宿 (Shinjuku),2015-10-15,19:01～20:00,0.0332,0.0296,0.0313,
新宿 (Shinjuku),2015-10-15,18:01～19:00,0.0328,0.0295,0.0310,
新宿 (Shinjuku),2015-10-15,17:01～18:00,0.0340,0.0294,0.0311,
新宿 (Shinjuku),2015-10-15,16:01～17:00,0.0330,0.0292,0.0313,
新宿 (Shinjuku),2015-10-15,15:01～16:00,0.0334,0.0294,0.0315,
新宿 (Shinjuku),2015-10-15,14:01～15:00,0.0337,0.0300,0.0316,
新宿 (Shinjuku),2015-10-15,13:01～14:00,0.0334,0.0297,0.0315,
新宿 (Shinjuku),2015-10-15,12:01～13:00,0.0343,0.0292,0.0315,
新宿 (Shinjuku),2015-10-15,11:01～12:00,0.0335,0.0302,0.0319,
新宿 (Shinjuku),2015-10-15,10:01～11:00,0.0345,0.0300,0.0318,
新宿 (Shinjuku),2015-10-15,09:01～10:00,0.0341,0.0301,0.0322,
新宿 (Shinjuku),2015-10-15,08:01～09:00,0.0344,0.0296,0.0322,
新宿 (Shinjuku),2015-10-15,07:01～08:00,0.0339,0.0300,0.0321,
新宿 (Shinjuku),2015-10-15,06:01～07:00,0.0342,0.0302,0.0322,
新宿 (Shinjuku),2015-10-15,05:01～06:00,0.0345,0.0303,0.0322,
新宿 (Shinjuku),2015-10-15,04:01～05:00,0.0333,0.0304,0.0319,
新宿 (Shinjuku),2015-10-15,03:01～04:00,0.0344,0.0294,0.0319,
新宿 (Shinjuku),2015-10-15,02:01～03:00,0.0349,0.0293,0.0315,
新宿 (Shinjuku),2015-10-15,01:01～02:00,0.0331,0.0297,0.0317,
新宿 (Shinjuku),2015-10-15,00:01～01:00,0.0333,0.0299,0.0317,
新宿 (Shinjuku),2015-10-14,23:01～24:00,0.0334,0.0296,0.0315,
新宿 (Shinjuku),2015-10-14,22:01～23:00,0.0332,0.0302,0.0316,
新宿 (Shinjuku),2015-10-14,21:01～22:00,0.0335,0.0293,0.0311,
新宿 (Shinjuku),2015-10-14,20:01～21:00,0.0336,0.0287,0.0315,
新宿 (Shinjuku),2015-10-14,19:01～20:00,0.0336,0.0296,0.0315,
新宿 (Shinjuku),2015-10-14,18:01～19:00,0.0337,0.0301,0.0316,
新宿 (Shinjuku),2015-10-14,17:01～18:00,0.0333,0.0295,0.0315,
新宿 (Shinjuku),2015-10-14,16:01～17:00,0.0328,0.0295,0.0314,
新宿 (Shinjuku),2015-10-14,15:01～16:00,0.0335,0.0295,0.0315,
新宿 (Shinjuku),2015-10-14,14:01～15:00,0.0327,0.0299,0.0312,
新宿 (Shinjuku),2015-10-14,13:01～14:00,0.0340,0.0294,0.0315,
新宿 (Shinjuku),2015-10-14,12:01～13:00,0.0339,0.0291,0.0318,
新宿 (Shinjuku),2015-10-14,11:01～12:00,0.0340,0.0301,0.0318,
新宿 (Shinjuku),2015-10-14,10:01～11:00,0.0338,0.0304,0.0319,
新宿 (Shinjuku),2015-10-14,09:01～10:00,0.0343,0.0298,0.0318,
新宿 (Shinjuku),2015-10-14,08:01～09:00,0.0342,0.0291,0.0317,
新宿 (Shinjuku),2015-10-14,07:01～08:00,0.0335,0.0291,0.0317,
新宿 (Shinjuku),2015-10-14,06:01～07:00,0.0332,0.0294,0.0315,
新宿 (Shinjuku),2015-10-14,05:01～06:00,0.0340,0.0293,0.0313,
新宿 (Shinjuku),2015-10-14,04:01～05:00,0.0332,0.0299,0.0311,
新宿 (Shinjuku),2015-10-14,03:01～04:00,0.0347,0.0294,0.0314,
新宿 (Shinjuku),2015-10-14,02:01～03:00,0.0340,0.0302,0.0319,
新宿 (Shinjuku),2015-10-14,01:01～02:00,0.0335,0.0293,0.0316,
新宿 (Shinjuku),2015-10-14,00:01～01:00,0.0333,0.0300,0.0316,
新宿 (Shinjuku),2015-10-13,23:01～24:00,0.0335,0.0299,0.0316,
新宿 (Shinjuku),2015-10-13,22:01～23:00,0.0337,0.0291,0.0314,
新宿 (Shinjuku),2015-10-13,21:01～22:00,0.0341,0.0289,0.0317,
新宿 (Shinjuku),2015-10-13,20:01～21:00,0.0341,0.0291,0.0316,
新宿 (Shinjuku),2015-10-13,19:01～20:00,0.0334,0.0292,0.0314,
新宿 (Shinjuku),2015-10-13,18:01～19:00,0.0338,0.0298,0.0317,
新宿 (Shinjuku),2015-10-13,17:01～18:00,0.0343,0.0296,0.0316,
新宿 (Shinjuku),2015-10-13,16:01～17:00,0.0333,0.0296,0.0314,
新宿 (Shinjuku),2015-10-13,15:01～16:00,0.0341,0.0290,0.0316,
新宿 (Shinjuku),2015-10-13,14:01～15:00,0.0337,0.0295,0.0317,
新宿 (Shinjuku),2015-10-13,13:01～14:00,0.0341,0.0290,0.0317,
新宿 (Shinjuku),2015-10-13,12:01～13:00,0.0339,0.0297,0.0318,
新宿 (Shinjuku),2015-10-13,11:01～12:00,0.0337,0.0299,0.0319,
新宿 (Shinjuku),2015-10-13,10:01～11:00,0.0337,0.0297,0.0322,
新宿 (Shinjuku),2015-10-13,09:01～10:00,0.0345,0.0297,0.0323,
新宿 (Shinjuku),2015-10-13,08:01～09:00,0.0341,0.0305,0.0325,
新宿 (Shinjuku),2015-10-13,07:01～08:00,0.0344,0.0306,0.0322,
新宿 (Shinjuku),2015-10-13,06:01～07:00,0.0345,0.0293,0.0324,
新宿 (Shinjuku),2015-10-13,05:01～06:00,0.0343,0.0305,0.0322,
新宿 (Shinjuku),2015-10-13,04:01～05:00,0.0339,0.0297,0.0319,
新宿 (Shinjuku),2015-10-13,03:01～04:00,0.0347,0.0292,0.0322,
新宿 (Shinjuku),2015-10-13,02:01～03:00,0.0345,0.0303,0.0323,
新宿 (Shinjuku),2015-10-13,01:01～02:00,0.0337,0.0300,0.0321,
新宿 (Shinjuku),2015-10-13,00:01～01:00,0.0333,0.0297,0.0319,
新宿 (Shinjuku),2015-10-12,23:01～24:00,0.0341,0.0298,0.0320,
新宿 (Shinjuku),2015-10-12,22:01～23:00,0.0343,0.0298,0.0318,
新宿 (Shinjuku),2015-10-12,21:01～22:00,0.0343,0.0296,0.0319,
新宿 (Shinjuku),2015-10-12,20:01～21:00,0.0334,0.0297,0.0317,
新宿 (Shinjuku),2015-10-12,19:01～20:00,0.0336,0.0295,0.0315,
新宿 (Shinjuku),2015-10-12,18:01～19:00,0.0339,0.0292,0.0314,
新宿 (Shinjuku),2015-10-12,17:01～18:00,0.0328,0.0293,0.0311,
新宿 (Shinjuku),2015-10-12,16:01～17:00,0.0331,0.0295,0.0313,
新宿 (Shinjuku),2015-10-12,15:01～16:00,0.0333,0.0294,0.0317,
新宿 (Shinjuku),2015-10-12,14:01～15:00,0.0348,0.0300,0.0317,
新宿 (Shinjuku),2015-10-12,13:01～14:00,0.0350,0.0298,0.0319,
新宿 (Shinjuku),2015-10-12,12:01～13:00,0.0344,0.0298,0.0318,
新宿 (Shinjuku),2015-10-12,11:01～12:00,0.0350,0.0297,0.0321,
新宿 (Shinjuku),2015-10-12,10:01～11:00,0.0340,0.0296,0.0321,
新宿 (Shinjuku),2015-10-12,09:01～10:00,0.0343,0.0302,0.0324,
新宿 (Shinjuku),2015-10-12,08:01～09:00,0.0349,0.0306,0.0325,
新宿 (Shinjuku),2015-10-12,07:01～08:00,0.0341,0.0302,0.0323,
新宿 (Shinjuku),2015-10-12,06:01～07:00,0.0346,0.0302,0.0322,
新宿 (Shinjuku),2015-10-12,05:01～06:00,0.0337,0.0303,0.0322,
新宿 (Shinjuku),2015-10-12,04:01～05:00,0.0338,0.0300,0.0319,
新宿 (Shinjuku),2015-10-12,03:01～04:00,0.0347,0.0307,0.0324,
新宿 (Shinjuku),2015-10-12,02:01～03:00,0.0338,0.0297,0.0320,
新宿 (Shinjuku),2015-10-12,01:01～02:00,0.0346,0.0299,0.0321,
新宿 (Shinjuku),2015-10-12,00:01～01:00,0.0341,0.0297,0.0318,
